Weather History for Tamanrasset, Algeria

Change the Weather History Date:

Wednesday, February 13, 2013

  Actual Average Record
Temperature  
Mean Temperature 55 °F -  
Max Temperature 69 °F 68 °F 75 °F (2003)
Min Temperature 41 °F 43 °F 35 °F (2004)
Degree Days  
Heating Degree Days 10    
Growing Degree Days 5 (Base 50)    
Moisture  
Dew Point 6 °F    
Average Humidity 13    
Maximum Humidity 23    
Minimum Humidity 4    
Precipitation  
Precipitation 0.00 in - - ()
Sea Level Pressure  
Sea Level Pressure 30.04 in    
Wind  
Wind Speed 9 mph ()    
Max Wind Speed 18 mph    
Max Gust Speed -    
Visibility 14.3 miles    
Events      
Averages and records for this station are not official NWS values.
T = Trace of Precipitation, MM = Missing Value Source: Averaged Metar Reports

Daily Weather History Graph

Daily Weather History Graph

Search for Another Location

Airport:

Trip Planner

Search our weather history database for the weather conditions in past years. The results will help you decide how hot, cold, wet, or windy it might be!

Date:

Astronomy

Feb. 13, 2013 Rise Set
Actual Time 7:11 AM CET 6:33 PM CET
Civil Twilight 6:48 AM CET 6:56 PM CET
Nautical Twilight 6:21 AM CET 7:23 PM CET
Astronomical Twilight 5:55 AM CET 7:49 PM CET
Moon 9:02 AM CET (2/13) 9:45 PM CET (2/13)
Length of Visible Light 12h 08m
Length of Day
11h 22m
Waxing Crescent, 12% of the Moon is Illuminated
Feb 13
Waxing Crescent
Feb 17
First Quarter
Feb 25
Full
Mar 4
Last Quarter
Mar 11
New

Hourly Weather History & Observations

Time (CET) Temp. Windchill Dew Point Humidity Pressure Visibility Wind Dir Wind Speed Gust Speed Precip Events Conditions
12:30 AM 50.0 °F - 5.0 °F 16% 30.04 in - North 8.1 mph - N/A   Clear
1:00 AM 46 °F - 2 °F 7%  in 12 mi North 6.9 mph - -   Clear
1:00 AM 46.4 °F 42.9 °F 3.2 °F 17% 30.04 in - North 6.9 mph - N/A   Clear
1:30 AM 44.6 °F 42.2 °F 3.2 °F 18% 30.04 in - North 4.6 mph - N/A   Clear
2:00 AM 42.8 °F 37.5 °F 1.4 °F 18% 30.01 in - North 9.2 mph - N/A   Clear
2:30 AM 46.4 °F 41.5 °F 1.4 °F 16% 30.01 in - North 10.4 mph - N/A   Clear
3:00 AM 46.4 °F 41.9 °F 1.4 °F 16% 30.01 in - North 9.2 mph - N/A   Clear
3:30 AM 46.4 °F 42.9 °F 1.4 °F 16% 30.01 in - North 6.9 mph - N/A   Clear
4:00 AM 44 °F - -0 °F 6%  in 12 mi North 8.1 mph - -   Clear
4:00 AM 44.6 °F 40.2 °F -0.4 °F 15% 30.01 in - North 8.1 mph - N/A   Clear
4:30 AM 42.8 °F 40.1 °F -0.4 °F 16% 30.01 in - North 4.6 mph - N/A   Clear
5:00 AM 44.6 °F 38.8 °F -0.4 °F 15% 30.01 in - North 11.5 mph - N/A   Clear
5:30 AM 42.8 °F 36.6 °F -0.4 °F 16% 30.01 in - North 11.5 mph - N/A   Clear
6:00 AM 44.6 °F 38.1 °F -2.2 °F 14% 30.01 in - NNW 13.8 mph - N/A   Clear
6:30 AM 46.4 °F 41.1 °F -0.4 °F 14% 30.01 in - NNW 11.5 mph - N/A   Clear
7:00 AM 45 °F - -3 °F 5%  in 12 mi NNW 10.4 mph - -   Scattered Clouds
7:00 AM 44.6 °F 39.2 °F -2.2 °F 14% 30.01 in - NNW 10.4 mph - N/A   Clear
7:30 AM 48.2 °F - -2.2 °F 12% 30.04 in - NW 12.7 mph - N/A   Clear
8:00 AM 48.2 °F - -2.2 °F 12% 30.04 in - NW 10.4 mph - N/A   Clear
8:30 AM 50.0 °F - -0.4 °F 13% 30.04 in - NNW 8.1 mph - N/A   Clear
9:00 AM 53.6 °F - 1.4 °F 12% 30.04 in - NNW 9.2 mph - N/A   Clear
9:30 AM 57.2 °F - -0.4 °F 10% 30.06 in - NNW 11.5 mph - N/A   Clear
10:00 AM 59 °F - 0 °F 4%  in 19 mi NNW 9.2 mph - -   Scattered Clouds
10:00 AM 59.0 °F - -0.4 °F 9% 30.06 in - NNW 9.2 mph - N/A   Clear
10:30 AM 60.8 °F - -0.4 °F 8% 30.06 in - NW 8.1 mph - N/A   Clear
11:00 AM - - - N/A% 30.06 in - NW 8.1 mph - N/A   Clear
11:30 AM - - - N/A% 30.06 in - NNW 10.4 mph - N/A   Clear
12:00 PM - - - N/A% 30.06 in - NNW 10.4 mph - N/A   Clear
12:30 PM 68.0 °F - 10.4 °F 11% 30.06 in - NW 12.7 mph - N/A   Clear
1:00 PM 69 °F - 12 °F 4%  in 25 mi NNW 18.4 mph - -   Scattered Clouds
1:00 PM 68.0 °F - 12.2 °F 12% 30.06 in - NNW 18.4 mph - N/A   Clear
1:30 PM 68.0 °F - 12.2 °F 12% 30.04 in - NW 17.3 mph - N/A   Clear
2:00 PM 69.8 °F - 12.2 °F 11% 30.04 in - NW 16.1 mph - N/A   Clear
2:30 PM 69.8 °F - 12.2 °F 11% 30.01 in - NW 13.8 mph - N/A   Clear
3:00 PM 68.0 °F - 14.0 °F 12% 30.04 in - NW 13.8 mph - N/A   Clear
3:30 PM 69.8 °F - 12.2 °F 11% 30.01 in - NNW 13.8 mph - N/A   Clear
4:00 PM 69 °F - 13 °F 5%  in 25 mi NW 11.5 mph - -   Clear
4:00 PM 69.8 °F - 12.2 °F 11% 30.01 in - NW 11.5 mph - N/A   Clear
4:30 PM 69.8 °F - 10.4 °F 10% 30.01 in - NW 11.5 mph - N/A   Clear
5:00 PM 69.8 °F - 8.6 °F 9% 30.01 in - WNW 11.5 mph - N/A   Clear
5:30 PM 68.0 °F - 6.8 °F 9% 30.01 in - WNW 11.5 mph - N/A   Clear
6:00 PM 68.0 °F - 6.8 °F 9% 30.01 in - NW 12.7 mph - N/A   Clear
6:30 PM 64.4 °F - 6.8 °F 10% 30.01 in - NW 12.7 mph - N/A   Clear
7:00 PM 61 °F - 10 °F 6%  in 19 mi WNW 11.5 mph - -   Clear
7:00 PM 60.8 °F - 10.4 °F 14% 30.01 in - WNW 11.5 mph - N/A   Clear
7:30 PM 59.0 °F - 14.0 °F 17% 30.04 in - WNW 9.2 mph - N/A   Clear
8:00 PM 57.2 °F - 14.0 °F 18% 30.04 in - WNW 6.9 mph - N/A   Clear
8:30 PM 55.4 °F - 14.0 °F 20% 30.06 in - West 6.9 mph - N/A   Clear
9:00 PM 53.6 °F - 14.0 °F 21% 30.06 in - Variable 2.3 mph - N/A   Clear
9:30 PM 53.6 °F - 12.2 °F 19% 30.09 in - South 4.6 mph - N/A   Clear
10:00 PM 49 °F - 8 °F 9%  in 12 mi SE 2.3 mph - -   Clear
10:00 PM 48.2 °F - 8.6 °F 20% 30.09 in - SE 2.3 mph - N/A   Clear
10:30 PM 48.2 °F - 8.6 °F 20% 30.09 in - ESE 3.5 mph - N/A   Clear
11:00 PM 44.6 °F 41.4 °F 6.8 °F 21% 30.09 in - ESE 5.8 mph - N/A   Clear
11:30 PM 44.6 °F 41.4 °F 8.6 °F 23% 30.09 in - East 5.8 mph - N/A   Clear